Terminal Aerodrome Forecast
Issued by NWS

Home | Current Version | Previous Version | Text Only | Print | Product List | Glossary Off
Versions: 1 2 3 4 5 6 7 8 9 10 11 12 13 14 15 16 17 18 19 20 21 22 23 24 25 26 27 28 29 30 31 32 33 34 35 36 37 38 39 40

000
FTUS43 KLOT 251737
TAFGYY
TAF
KGYY 251737Z 2518/2618 16010KT P6SM FEW040 SCT120 BKN250
     FM251900 16010KT P6SM SCT040 BKN250
     FM252200 17011KT P6SM VCSH SCT040 BKN200
      TEMPO 2523/2602 4SM TSRA SCT030 OVC040CB
     FM260200 18008KT P6SM SCT025 BKN120 BKN250 PROB30 2609/2613 5SM
      -TSRA BR OVC040CB
     FM261500 22012G17KT P6SM SCT035 BKN250=

USA.gov is the U.S. government's official web portal to all federal, state and local government web resources and services.